This is the latest recevied weather packets stored in our database for station/object AA4XD. If no packets are shown the sender has not sent any weather packets the latest 10 day(s).
| Time | Temp. | Humidity | Pressure | Rain* | Wind** | Luminosity | Snow |
|---|---|---|---|---|---|---|---|
| 1777830486 | 25.56° C | 38% | 1017.5 hPa | 0 mm | - | 1028 W/m² | - |
| 1777830185 | 25.56° C | 38% | 1017.5 hPa | 0 mm | - | 1030 W/m² | - |
| 1777829880 | 25° C | 39% | 1017.7 hPa | 0 mm | - | 1031 W/m² | - |
| 1777829575 | 25° C | 41% | 1017.6 hPa | 0 mm | - | 1029 W/m² | - |
| 1777829273 | 24.44° C | 42% | 1017.9 hPa | 0 mm | - | 1032 W/m² | - |
| 1777828970 | 24.44° C | 39% | 1017.7 hPa | 0 mm | - | 1029 W/m² | - |
| 1777828666 | 25° C | 42% | 1017.8 hPa | 0 mm | - | 1028 W/m² | - |
| 1777828364 | 24.44° C | 40% | 1017.9 hPa | 0 mm | - | 1021 W/m² | - |
| 1777828061 | 24.44° C | 42% | 1017.9 hPa | 0 mm | - | 1019 W/m² | - |
| 1777827757 | 25° C | 40% | 1017.9 hPa | 0 mm | - | 1009 W/m² | - |
| 1777827454 | 24.44° C | 35% | 1018 hPa | 0 mm | - | 1008 W/m² | - |
| 1777827152 | 24.44° C | 43% | 1018.3 hPa | 0 mm | - | 1009 W/m² | - |
| 1777826847 | 24.44° C | 39% | 1018.4 hPa | 0 mm | - | 1007 W/m² | - |
| 1777826546 | 24.44° C | 41% | 1018.4 hPa | 0 mm | - | 1005 W/m² | - |
| 1777826241 | 24.44° C | 46% | 1018.4 hPa | 0 mm | - | 1002 W/m² | - |
| 1777825940 | 23.89° C | 44% | 1018.5 hPa | 0 mm | - | 999 W/m² | - |
| 1777825636 | 23.89° C | 44% | 1018.6 hPa | 0 mm | - | 991 W/m² | - |
| 1777825334 | 23.33° C | 50% | 1018.6 hPa | 0 mm | - | 986 W/m² | - |
| 1777825030 | 23.33° C | 52% | 1018.7 hPa | 0 mm | - | 977 W/m² | - |
| 1777824726 | 23.33° C | 53% | 1018.7 hPa | 0 mm | - | 968 W/m² | - |
| 1777824424 | 23.33° C | 53% | 1018.7 hPa | 0 mm | - | 956 W/m² | - |
| 1777824119 | 23.33° C | 55% | 1018.7 hPa | 0 mm | - | 945 W/m² | - |
| 1777823816 | 22.78° C | 57% | 1018.7 hPa | 0 mm | - | 947 W/m² | - |
| 1777823513 | 22.78° C | 57% | 1018.9 hPa | 0 mm | - | 933 W/m² | - |
| 1777823210 | 22.78° C | 60% | 1018.9 hPa | 0 mm | - | 919 W/m² | - |
* Rain latest hour (hover to see other rain measurements)
** Current wind speed in m/s (hover to see current wind gust speed)